Regional Weather Roundup
Issued by NWS

Home | Current Version | Previous Version | Graphics & Text | Print | Product List | Glossary Off
Versions: 1 2 3 4 5 6 7 8 9 10 11 12 13 14 15 16 17 18 19 20 21 22 23 24 25 26 27 28 29 30 31 32 33 34 35 36 37 38 39 40 41 42 43 44 45 46 47 48 49 50

000
ASUS43 KDMX 010707
RWRIA

WEATHER ROUNDUP FOR IOWA
NATIONAL WEATHER SERVICE DES MOINES IA
200 AM CDT FRI AUG 01 2014

NOTE: "FAIR" INDICATES FEW OR NO CLOUDS BELOW 12,000 FEET WITH NO
SIGNIFICANT WEATHER AND/OR OBSTRUCTIONS TO VISIBILITY.

* - THESE STATIONS ARE NOT NWS STATIONS...THUS NOT UNDER NWS
QUALITY CONTROL.  THEY ALSO DO NOT REPORT WEATHER SUCH
AS PRECIPITATION OR FOG.

IAZ001>003-012>014-020>022-031>034-043>046-010800-
   NORTHWEST IOWA

CITY           SKY/WX    TMP DP  RH WIND       PRES   REMARKS
CARROLL *      CLOUDY    59  57  94 CALM      30.08S
CHEROKEE *     CLEAR     55  55 100 S3        30.08S
DENISON *      CLOUDY    61  61 100 CALM      30.07F
LE MARS *      CLEAR     57  55  94 CALM      30.07F
ORANGE CITY *  CLEAR     63  59  88 CALM      30.07F
SHELDON *      CLEAR     57  55  94 S5        30.07S
SIOUX CITY     CLEAR     60  58  92 CALM      30.07S
SPENCER        CLEAR     59  56  89 S3        30.07S
STORM LAKE *   MOCLDY    59  59 100 CALM      30.09S
$$

IAZ055>058-069>071-079>083-090>094-010800-
   SOUTHWEST IOWA

CITY           SKY/WX    TMP DP  RH WIND       PRES   REMARKS
ATLANTIC *     DRIZZLE   64  63  94 NE3       30.08S
AUDUBON *      CLEAR     66  63  88 W6        30.10S
CLARINDA *     CLOUDY    66  63  88 SW7       30.09S
COUNCIL BLFS *   N/A     66  64  94 NE5       30.08R
CRESTON *      MOCLDY    64  61  88 E3        30.08S
HARLAN  *      MOCLDY    64  64 100 CALM      30.12F FOG
LAMONI         CLOUDY    66  60  81 CALM      30.07S
RED OAK *      CLOUDY    66  63  88 NW3       30.08R
SHENANDOAH *   MOCLDY    66  64  94 W6        30.09R
$$

IAZ047>049-059>061-072>074-084-010800-
   CENTRAL IOWA

CITY           SKY/WX    TMP DP  RH WIND       PRES   REMARKS
AMES           CLEAR     57  56  96 CALM      30.06S
ANKENY *       CLEAR     57  57 100 CALM      30.06S
CHARITON *     CLOUDY    64  61  88 E3        30.06F
DES MOINES     PTCLDY    65  61  87 CALM      30.05F
GRINNELL*      CLEAR     63  59  88 N3        30.06F
KNOXVILLE *    MOCLDY    66  63  88 CALM      30.05S
MARSHALLTOWN   CLEAR     60  58  92 CALM      30.06S
PELLA *        MOCLDY    64  61  88 CALM      30.07S
PERRY *          N/A     59  59 100 W3        30.07S
$$

IAZ004>006-015-016-023>025-035-036-010800-
   NORTH CENTRAL IOWA

CITY           SKY/WX    TMP DP  RH WIND       PRES   REMARKS
ALGONA *       CLEAR     63  61  94 SW6       30.07S
CLARION *      CLEAR     59  59 100 S5        30.06F
ESTHERVILLE    CLEAR     60  57  89 W3        30.06S
FORT DODGE *   CLEAR     57  55  94 CALM      30.07F
MASON CITY     PTCLDY    62  59  90 W5        30.07F
FOREST CITY *  FOG       55  55 100 CALM      30.06F VSB 1/2
IOWA FALLS *     N/A     59  57  94 CALM      30.07F
$$

IAZ007>011-017>019-026>030-037>042-050>054-066-010800-
   NORTHEAST IOWA

CITY           SKY/WX    TMP DP  RH WIND       PRES   REMARKS
CEDAR RAPIDS   MOCLDY    62  60  93 CALM      30.05S
CHARLES CITY * CLEAR     57  57 100 CALM      30.06F
CLINTON *      PTCLDY    64  61  88 S5        30.08R
DECORAH *      PTCLDY    59  55  88 CALM      30.05R
DUBUQUE        CLOUDY    61  58  90 S3        30.06S
MONTICELLO *   CLEAR     57  57 100 CALM      30.05S
OELWEIN *      CLEAR     63  59  88 CALM      30.07S
WATERLOO       CLEAR     60  57  89 CALM      30.05S
$$

IAZ064-065-067-068-078-010800-
   EAST CENTRAL IOWA

CITY           SKY/WX    TMP DP  RH WIND       PRES   REMARKS
DAVENPORT      MOCLDY    64  60  87 CALM      30.06S
IOWA CITY      PTCLDY    66  63  90 CALM      30.06F
MT. PLEASANT * MOCLDY    66  64  94 S3        30.06F
MUSCATINE *    CLOUDY    66  64  94 CALM      30.06S
QUAD CITIES    MOCLDY    66  61  84 CALM      30.05S
$$

IAZ062-063-075>077-085>089-095>099-010800-
   SOUTHEAST IOWA

CITY           SKY/WX    TMP DP  RH WIND       PRES   REMARKS
BURLINGTON     CLOUDY    67  65  93 CALM      30.06S
FAIRFIELD *    PTCLDY    66  63  88 CALM      30.06F
FORT MADISON * CLEAR     66  64  94 CALM      30.07S
KEOKUK *       MOCLDY    66  63  88 CALM      30.05F
OSKALOOSA *    MOCLDY    64  61  88 CALM      30.07S
CENTERVILLE *  CLEAR     59  59 100 S3        30.08S
OTTUMWA        MOCLDY    64  60  87 CALM      30.06S
WASHINGTON *   MOCLDY    66  64  94 SW3       30.06S
$$

ABBREVIATIONS USED IN REMARKS
   TC - TEMPERATURES IN CELSIUS
  WCI - WIND CHILL INDEX
   HX - HEAT INDEX
  VSB - VISIBILITY
$$




USA.gov is the U.S. government's official web portal to all federal, state and local government web resources and services.